EW5449 Weather Reports


Display with metric or nautical units.
time (UTC)temp
F
wind
direction
speed
MPH
gust
MPH
rain 1hr
in
rain 24hr
in
rain mn
in
humidity
%
barometer
mb
20260508060050 54 339 0.0 2.0 0.00 0.00 0.00 46 1012.6
20260508054549 54 194 0.0 2.0 0.00 0.00 0.00 46 1012.6
20260508053054 54 329 0.0 3.0 0.00 0.00 0.00 45 1012.6
20260508051550 55 202 0.0 4.0 0.00 0.00 0.00 45 1012.6
20260508050057 55 210 0.0 4.0 0.00 0.00 0.00 46 1012.5
20260508044543 54 230 0.0 2.0 0.00 0.00 0.00 45 1012.3
20260508043040 55 212 0.0 2.0 0.00 0.00 0.00 47 1012.0
20260508041537 55 210 0.0 2.0 0.00 0.00 0.00 46 1011.8
20260508040047 55 198 0.0 2.0 0.00 0.00 0.00 47 1011.5
20260508034540 55 215 0.0 2.0 0.00 0.00 0.00 47 1011.3
20260508033031 55 204 0.0 2.0 0.00 0.00 0.00 46 1011.2
20260508031533 56 204 0.0 2.0 0.00 0.00 0.00 44 1011.0
20260508030030 57 204 0.0 2.0 0.00 0.00 0.00 44 1010.9
20260508024531 58 205 0.0 2.0 0.00 0.00 0.00 43 1010.8
20260508023029 58 205 0.0 2.0 0.00 0.00 0.00 42 1010.8
20260508021527 58 205 0.0 2.0 0.00 0.00 0.00 42 1010.6
20260508020028 59 198 0.0 2.0 0.00 0.00 0.00 42 1010.4
20260508014527 59 210 0.0 2.0 0.00 0.00 0.00 42 1010.4
20260508013026 59 208 0.0 4.0 0.00 0.00 0.00 41 1010.0
20260508011526 60 218 0.0 2.0 0.00 0.00 0.00 40 1009.8
20260508010029 60 184 0.0 2.0 0.00 0.00 0.00 40 1009.5
20260508004530 61 183 0.0 2.0 0.00 0.00 0.00 39 1009.4
20260508003026 62 229 0.0 2.0 0.00 0.00 0.00 39 1009.1
20260508001524 62 230 0.0 2.0 0.00 0.00 0.00 39 1008.8
20260508000023 63 344 1.0 3.0 0.00 0.00 0.00 37 1008.5
20260507234533 63 213 0.0 5.0 0.00 0.00 0.00 39 1008.4
20260507233025 63 117 0.0 2.0 0.00 0.00 0.00 58 1008.2
20260507231521 63 139 0.0 2.0 0.00 0.00 0.00 56 1008.0
20260507230021 64 110 0.0 2.0 0.00 0.00 0.00 56 1007.8
20260507224520 65 112 0.0 2.0 0.00 0.00 0.00 54 1007.5
20260507223019 65 118 0.0 2.0 0.00 0.00 0.00 53 1007.3
20260507221529 66 113 0.0 2.0 0.00 0.00 0.00 51 1007.1
20260507220019 68 93 0.0 2.0 0.00 0.00 0.00 47 1006.9
20260507214517 67 338 0.0 2.0 0.00 0.00 0.00 41 1006.9
20260507213023 67 5 0.0 2.0 0.00 0.00 0.00 40 1006.8
20260507211518 67 360 0.0 2.0 0.00 0.00 0.00 39 1006.8
20260507210024 68 333 0.0 3.0 0.00 0.00 0.00 37 1006.7
20260507204515 67 173 0.0 2.0 0.00 0.00 0.00 40 1006.7
20260507203015 67 114 0.0 2.0 0.00 0.00 0.00 39 1006.8
20260507201512 67 124 0.0 2.0 0.00 0.00 0.00 40 1006.8
20260507200013 67 172 0.0 2.0 0.00 0.00 0.00 39 1007.0
20260507194525 68 132 0.0 3.0 0.00 0.00 0.00 41 1007.1
20260507193008 69 201 1.0 4.0 0.00 0.00 0.00 35 1007.4
20260507191505 70 349 0.0 2.0 0.00 0.00 0.00 36 1007.6
20260507190010 70 329 0.0 6.0 0.00 0.00 0.00 37 1007.7
20260507184559 68 355 0.0 3.0 0.00 0.00 0.00 40 1007.9
20260507183114 67 179 0.0 2.0 0.00 0.00 0.00 37 1008.0
20260507181559 67 335 1.0 9.0 0.00 0.00 0.00 38 1008.3
20260507180053 66 209 1.0 4.0 0.00 0.00 0.00 39 1008.4
20260507174559 66 325 1.0 4.0 0.00 0.00 0.00 40 1008.7
20260507173048 65 209 0.0 3.0 0.00 0.00 0.00 41 1009.0
20260507171543 65 192 2.0 6.0 0.00 0.00 0.00 41 1009.3
20260507170043 65 355 1.0 8.0 0.00 0.00 0.00 41 1009.6
20260507164546 64 344 2.0 9.0 0.00 0.00 0.00 41 1010.0
20260507163035 63 348 1.0 5.0 0.00 0.00 0.00 42 1010.1
20260507161547 62 350 0.0 4.0 0.00 0.00 0.00 41 1010.3
20260507160029 61 215 0.0 5.0 0.00 0.00 0.00 45 1010.6
20260507154527 60 335 0.0 4.0 0.00 0.00 0.00 43 1010.9
20260507153033 60 355 1.0 4.0 0.00 0.00 0.00 45 1011.0
20260507151523 59 342 0.0 4.0 0.00 0.00 0.00 47 1011.2
20260507150020 58 204 1.0 6.0 0.00 0.00 0.00 49 1011.3
20260507144518 57 221 0.0 5.0 0.00 0.00 0.00 51 1011.4
20260507143022 55 205 0.0 3.0 0.00 0.00 0.00 53 1011.9
20260507141520 55 338 0.0 2.0 0.00 0.00 0.00 53 1012.1
20260507140020 54 323 0.0 3.0 0.00 0.00 0.00 52 1012.4
20260507134515 54 346 0.0 2.0 0.00 0.01 0.00 52 1012.6
20260507133015 54 345 1.0 4.0 0.00 0.01 0.00 50 1012.8
20260507131518 54 329 0.0 4.0 0.00 0.01 0.00 51 1012.7
20260507130012 54 336 0.0 2.0 0.00 0.01 0.00 53 1012.7
20260507124516 53 225 0.0 2.0 0.00 0.07 0.00 54 1012.6
20260507123011 53 337 0.0 2.0 0.00 0.07 0.00 54 1012.6
20260507121513 53 342 0.0 2.0 0.00 0.07 0.00 56 1012.5
20260507120009 53 338 0.0 2.0 0.00 0.07 0.00 54 1012.5
20260507114508 53 336 0.0 2.0 0.00 0.11 0.00 55 1012.4
20260507113019 52 343 0.0 3.0 0.00 0.11 0.00 54 1012.2
20260507111504 53 349 1.0 4.0 0.00 0.11 0.00 54 1011.9
20260507110001 53 340 0.0 4.0 0.00 0.11 0.00 56 1012.0
20260507104559 53 340 0.0 3.0 0.00 0.11 0.00 56 1011.8
20260507103058 53 340 0.0 3.0 0.00 0.11 0.00 57 1011.7
20260507101556 53 348 1.0 3.0 0.00 0.11 0.00 57 1011.5
20260507100057 53 336 0.0 4.0 0.00 0.11 0.00 59 1011.2
20260507094551 54 339 1.0 4.0 0.00 0.11 0.00 63 1011.2
20260507093051 54 349 0.0 2.0 0.00 0.11 0.00 70 1011.1
20260507091558 54 340 0.0 2.0 0.00 0.11 0.00 71 1011.0
20260507090048 54 331 0.0 2.0 0.00 0.11 0.00 70 1011.0
20260507084553 54 330 0.0 2.0 0.00 0.11 0.00 70 1011.0
20260507083045 54 333 0.0 2.0 0.00 0.11 0.00 70 1011.0
20260507081552 55 340 0.0 2.0 0.00 0.11 0.00 70 1011.0
20260507080045 55 338 0.0 2.0 0.00 0.11 0.00 69 1011.0
20260507074549 55 344 0.0 2.0 0.00 0.11 0.00 69 1010.6
20260507073043 55 346 0.0 2.0 0.00 0.11 0.00 69 1010.4
20260507071542 55 296 0.0 2.0 0.00 0.11 0.00 70 1010.5
20260507070045 55 336 0.0 2.0 0.00 0.11 0.00 70 1010.4
20260507064540 55 334 0.0 2.0 0.00 0.11 0.00 70 1010.6
20260507063042 55 334 0.0 2.0 0.00 0.11 0.00 69 1010.7
20260507061539 55 314 0.0 4.0 0.00 0.11 0.00 69 1011.0